QPF
0.00 0.00 0.00 0.00 0.00 0.00 0.02 0.05 0.13 0.28 0.40 0.33 0.18 0.11 0.20 0.19 0.08 0.01 0.13 0.14 0.06 0.05 0.04 0.04 0.04 0.01 0.00 0.00 0.01 0.03 0.03 0.00 0.00 0.00 0.00 0.00 0.00 0.00 0.00 0.00 0.00 0.00 0.00
0.00 0.00 0.00 0.00 0.00 0.00 0.00 0.00 0.01 0.07 0.10 0.19 0.19 0.24 0.21 0.18 0.23 0.13 0.10 0.15 0.09 0.04 0.03 0.05 0.04 0.02 0.00 0.00 0.00 0.00 0.02 0.02 0.00 0.00 0.00 0.00 0.00 0.00 0.00 0.00 0.00 0.00 0.00
0.00 0.00 0.00 0.00 0.00 0.00 0.00 0.00 0.00 0.01 0.01 0.03 0.11 0.17 0.22 0.18 0.13 0.11 0.09 0.11 0.15 0.15 0.09 0.02 0.03 0.02 0.02 0.00 0.00 0.00 0.01 0.03 0.02 0.01 0.00 0.00 0.00 0.00 0.00 0.00 0.00 0.00 0.00
0.00 0.00 0.00 0.00 0.00 0.00 0.00 0.00 0.00 0.00 0.00 0.00 0.00 0.00 0.04 0.10 0.12 0.08 0.04 0.03 0.09 0.15 0.16 0.07 0.01 0.01 0.05 0.06 0.01 0.00 0.00 0.02 0.01 0.04 0.02 0.00 0.00 0.00 0.00 0.00 0.00 0.00 0.00
0.00 0.00 0.00 0.00 0.00 0.00 0.00 0.00 0.00 0.00 0.00 0.00 0.00 0.00 0.00 0.00 0.00 0.01 0.01 0.02 0.00 0.03 0.08 0.09 0.06 0.00 0.02 0.07 0.02 0.00 0.00 0.00 0.01 0.02 0.04 0.02 0.00 0.00 0.00 0.00 0.00 0.00 0.00
0.00 0.00 0.00 0.00 0.00 0.00 0.00 0.00 0.00 0.00 0.00 0.00 0.00 0.00 0.00 0.00 0.00 0.00 0.00 0.00 0.00 0.01 0.00 0.04 0.06 0.03 0.00 0.01 0.05 0.04 0.00 0.00 0.00 0.00 0.00 0.01 0.01 0.00 0.00 0.00 0.00 0.00 0.00
0.00 0.00 0.00 0.00 0.00 0.00 0.00 0.00 0.00 0.00 0.00 0.00 0.00 0.00 0.00 0.00 0.00 0.00 0.00 0.00 0.00 0.00 0.01 0.02 0.08 0.09 0.02 0.00 0.00 0.02 0.01 0.00 0.00 0.00 0.00 0.00 0.00 0.00 0.00 0.00 0.00 0.00 0.00
0.00 0.00 0.00 0.00 0.00 0.00 0.00 0.00 0.00 0.00 0.00 0.00 0.00 0.00 0.00 0.00 0.00 0.00 0.00 0.00 0.00 0.01 0.02 0.01 0.08 0.07 0.02 0.02 0.02 0.00 0.00 0.00 0.00 0.00 0.01 0.00 0.00 0.00 0.00 0.00 0.00 0.00 0.00
0.00 0.00 0.00 0.00 0.00 0.00 0.00 0.00 0.00 0.00 0.00 0.00 0.00 0.00 0.00 0.00 0.01 0.00 0.00 0.00 0.00 0.01 0.02 0.02 0.01 0.03 0.02 0.03 0.06 0.02 0.00 0.00 0.01 0.01 0.01 0.00 0.00 0.00 0.00 0.00 0.00 0.00 0.00
0.00 0.00 0.00 0.00 0.00 0.00 0.00 0.00 0.00 0.00 0.00 0.00 0.00 0.00 0.00 0.01 0.03 0.03 0.03 0.03 0.01 0.00 0.01 0.02 0.02 0.01 0.01 0.04 0.05 0.07 0.04 0.00 0.00 0.01 0.01 0.00 0.00 0.00 0.00 0.00 0.00 0.00 0.01
0.00 0.00 0.00 0.00 0.00 0.00 0.00 0.00 0.00 0.00 0.00 0.00 0.00 0.00 0.00 0.00 0.00 0.03 0.01 0.02 0.08 0.10 0.06 0.03 0.05 0.06 0.05 0.05 0.03 0.01 0.04 0.03 0.00 0.00 0.00 0.00 0.00 0.00 0.00 0.02 0.05 0.01 0.01
0.00 0.00 0.00 0.00 0.00 0.00 0.00 0.00 0.01 0.00 0.00 0.00 0.00 0.00 0.00 0.00 0.00 0.00 0.01 0.00 0.01 0.04 0.11 0.15 0.12 0.11 0.09 0.11 0.08 0.03 0.02 0.03 0.02 0.02 0.00 0.00 0.01 0.01 0.00 0.00 0.01 0.01 0.00
0.00 0.00 0.00 0.01 0.00 0.01 0.00 0.00 0.00 0.00 0.00 0.01 0.00 0.00 0.00 0.00 0.00 0.00 0.00 0.00 0.01 0.01 0.01 0.02 0.08 0.10 0.15 0.22 0.18 0.13 0.12 0.03 0.03 0.05 0.03 0.00 0.01 0.02 0.01 0.01 0.01 0.01 0.01
0.01 0.01 0.01 0.01 0.01 0.01 0.01 0.01 0.00 0.00 0.00 0.00 0.00 0.00 0.00 0.00 0.00 0.00 0.00 0.00 0.00 0.01 0.01 0.02 0.02 0.04 0.06 0.15 0.16 0.24 0.29 0.21 0.13 0.08 0.10 0.09 0.05 0.04 0.02 0.00 0.00 0.00 0.00
0.01 0.01 0.01 0.01 0.01 0.01 0.00 0.00 0.00 0.00 0.00 0.00 0.01 0.01 0.00 0.00 0.00 0.00 0.00 0.00 0.01 0.01 0.00 0.02 0.03 0.04 0.06 0.08 0.12 0.18 0.25 0.26 0.23 0.19 0.16 0.18 0.18 0.15 0.13 0.09 0.05 0.03 0.02
0.01 0.01 0.01 0.01 0.01 0.01 0.00 0.00 0.00 0.00 0.00 0.00 0.01 0.00 0.00 0.00 0.01 0.01 0.01 0.01 0.01 0.03 0.01 0.00 0.03 0.05 0.07 0.09 0.13 0.11 0.16 0.19 0.23 0.27 0.22 0.20 0.23 0.21 0.18 0.16 0.11 0.07 0.05
0.01 0.01 0.01 0.01 0.00 0.00 0.00 0.00 0.00 0.00 0.00 0.00 0.00 0.00 0.00 0.00 0.00 0.01 0.01 0.02 0.02 0.03 0.02 0.01 0.01 0.04 0.06 0.09 0.09 0.08 0.12 0.12 0.13 0.13 0.10 0.09 0.08 0.07 0.06 0.05 0.03 0.04 0.03
0.01 0.01 0.01 0.00 0.00 0.00 0.00 0.00 0.00 0.00 0.00 0.00 0.00 0.00 0.00 0.00 0.00 0.00 0.00 0.00 0.00 0.00 0.01 0.02 0.01 0.01 0.04 0.06 0.06 0.07 0.07 0.05 0.02 0.01 0.01 0.01 0.01 0.01 0.01 0.00 0.01 0.01 0.00
0.00 0.00 0.00 0.00 0.00 0.00 0.00 0.00 0.00 0.00 0.00 0.00 0.00 0.00 0.00 0.00 0.00 0.00 0.00 0.00 0.00 0.00 0.00 0.00 0.00 0.00 0.01 0.01 0.02 0.03 0.03 0.01 0.00 0.01 0.01 0.01 0.01 0.03 0.05 0.03 0.02 0.01 0.01
0.00 0.00 0.00 0.00 0.00 0.00 0.00 0.00 0.00 0.00 0.00 0.00 0.00 0.00 0.00 0.00 0.00 0.00 0.00 0.00 0.00 0.00 0.00 0.00 0.00 0.00 0.00 0.00 0.00 0.00 0.01 0.00 0.00 0.00 0.00 0.00 0.00 0.01 0.02 0.01 0.00 0.00 0.00
0.00 0.00 0.00 0.00 0.00 0.00 0.00 0.00 0.00 0.00 0.00 0.00 0.00 0.00 0.00 0.01 0.01 0.00 0.00 0.00 0.00 0.00 0.00 0.00 0.00 0.00 0.00 0.00 0.00 0.00 0.00 0.00 0.00 0.00 0.00 0.01 0.01 0.01 0.00 0.00 0.00 0.00 0.00
0.00 0.00 0.00 0.00 0.00 0.00 0.00 0.00 0.00 0.00 0.00 0.00 0.00 0.00 0.00 0.00 0.00 0.00 0.00 0.00 0.00 0.00 0.00 0.00 0.00 0.00 0.00 0.00 0.00 0.00 0.00 0.00 0.00 0.00 0.00 0.00 0.00 0.00 0.00 0.00 0.00 0.00 0.00
0.00 0.00 0.00 0.00 0.00 0.00 0.00 0.00 0.00 0.00 0.00 0.00 0.00 0.00 0.00 0.00 0.00 0.00 0.00 0.00 0.00 0.00 0.00 0.00 0.00 0.00 0.00 0.00 0.00 0.00 0.00 0.00 0.00 0.00 0.00 0.00 0.00 0.00 0.00 0.00 0.00 0.00 0.00
0.00 0.00 0.00 0.00 0.00 0.00 0.00 0.00 0.00 0.00 0.00 0.00 0.00 0.00 0.00 0.00 0.00 0.00 0.00 0.00 0.00 0.00 0.00 0.00 0.00 0.00 0.00 0.00 0.00 0.00 0.00 0.00 0.00 0.00 0.00 0.00 0.00 0.00 0.00 0.00 0.00 0.00 0.00
0.00 0.00 0.00 0.00 0.00 0.00 0.00 0.00 0.00 0.00 0.00 0.00 0.00 0.00 0.00 0.00 0.00 0.00 0.00 0.00 0.00 0.00 0.00 0.00 0.00 0.00 0.00 0.00 0.00 0.00 0.00 0.00 0.00 0.00 0.00 0.00 0.00 0.00 0.00 0.00 0.00 0.00 0.00
0.00 0.00 0.00 0.00 0.00 0.00 0.00 0.00 0.00 0.00 0.00 0.00 0.00 0.00 0.00 0.00 0.00 0.00 0.00 0.00 0.00 0.00 0.00 0.00 0.00 0.00 0.00 0.00 0.00 0.00 0.00 0.00 0.00 0.00 0.00 0.00 0.00 0.00 0.00 0.00 0.00 0.00 0.00
MSLP
1015.61 1015.21 1014.70 1014.04 1013.41 1012.63 1012.24 1012.30 1012.29 1012.27 1012.08 1011.45 1011.18 1010.39 1011.08 1010.91 1010.19 1009.86 1010.18 1011.25 1011.96 1012.50 1011.96 1012.66 1012.55 1013.07 1013.96 1014.52 1015.05 1015.32 1015.92 1016.35 1016.93 1017.36 1017.89 1018.12 1018.39 1018.75 1019.21 1019.63 1020.05 1020.46 1020.76
1016.02 1015.76 1015.26 1014.52 1013.79 1013.08 1012.63 1012.26 1012.31 1012.18 1011.85 1011.14 1011.04 1011.11 1011.38 1011.64 1011.33 1010.93 1011.09 1011.04 1011.42 1012.30 1012.30 1012.35 1012.21 1012.31 1013.35 1014.00 1014.52 1015.02 1015.20 1015.80 1016.40 1016.88 1017.50 1017.83 1018.11 1018.45 1018.74 1019.15 1019.65 1020.08 1020.52
1016.43 1016.26 1015.86 1015.32 1014.57 1013.81 1013.25 1012.67 1012.26 1011.87 1011.65 1011.29 1011.16 1011.15 1011.20 1010.30 1011.66 1011.25 1010.20 1011.07 1012.44 1012.55 1012.74 1012.41 1012.05 1011.92 1012.74 1013.47 1013.93 1014.42 1014.91 1015.04 1015.78 1016.37 1016.97 1017.48 1017.73 1018.13 1018.56 1018.90 1019.30 1019.72 1020.10
1016.57 1016.43 1016.21 1015.70 1015.01 1014.43 1013.73 1013.19 1012.79 1012.46 1011.71 1011.15 1011.28 1011.20 1010.95 1011.00 1011.39 1011.24 1010.24 1010.28 1010.65 1011.97 1012.45 1012.65 1011.76 1011.56 1011.83 1012.77 1013.31 1013.82 1014.22 1014.64 1014.82 1015.59 1016.36 1016.93 1017.26 1017.50 1017.97 1018.53 1018.99 1019.42 1019.81
1016.59 1016.55 1016.33 1015.89 1015.50 1014.87 1014.20 1013.55 1012.94 1012.66 1012.18 1011.39 1010.91 1010.91 1010.88 1010.77 1010.69 1010.51 1010.32 1009.79 1010.12 1009.64 1011.39 1010.72 1011.14 1010.77 1011.37 1011.98 1012.52 1013.09 1013.48 1014.10 1014.47 1014.56 1015.48 1016.33 1016.72 1017.18 1017.36 1017.87 1018.46 1019.01 1019.44
1016.72 1016.56 1016.28 1016.05 1015.67 1015.16 1014.45 1013.79 1013.16 1012.66 1012.22 1011.75 1011.10 1010.55 1010.20 1010.05 1010.14 1010.37 1010.12 1009.27 1009.08 1009.34 1009.33 1009.60 1010.21 1010.36 1010.71 1011.34 1011.58 1012.21 1012.66 1013.26 1013.71 1014.14 1014.24 1015.26 1016.02 1016.53 1016.97 1017.22 1017.70 1018.33 1018.87
1017.17 1017.11 1016.71 1016.42 1016.12 1015.61 1015.05 1014.32 1013.57 1012.93 1012.14 1011.67 1011.08 1010.31 1009.79 1009.24 1009.22 1009.21 1009.06 1008.70 1008.17 1007.81 1007.92 1008.58 1009.12 1009.99 1010.36 1010.64 1010.63 1010.93 1011.60 1012.21 1012.91 1013.36 1013.62 1013.95 1014.92 1015.67 1016.20 1016.61 1016.94 1017.41 1018.01
1018.04 1017.75 1017.54 1017.11 1016.61 1016.21 1015.83 1015.19 1014.36 1013.28 1012.39 1011.77 1011.13 1010.56 1009.44 1008.68 1008.02 1007.86 1007.87 1007.84 1007.55 1007.49 1007.63 1007.82 1008.42 1009.04 1009.38 1009.53 1010.24 1010.03 1010.35 1010.93 1011.69 1012.40 1012.92 1013.38 1013.65 1014.60 1015.39 1015.87 1016.31 1016.68 1017.15
1018.76 1018.46 1018.05 1017.67 1017.17 1016.69 1016.15 1015.55 1014.97 1014.20 1013.12 1011.89 1011.13 1010.65 1009.33 1008.49 1007.95 1006.85 1006.79 1006.85 1006.95 1007.12 1007.20 1007.28 1007.48 1007.83 1008.17 1008.48 1009.07 1009.39 1009.20 1009.82 1010.34 1011.09 1011.95 1012.73 1012.95 1013.38 1014.23 1015.01 1015.42 1015.90 1016.41
1019.18 1018.78 1018.26 1017.88 1017.44 1016.95 1016.37 1015.70 1014.97 1014.29 1013.74 1012.66 1011.78 1010.38 1009.77 1009.36 1008.71 1007.60 1006.43 1006.48 1006.63 1006.70 1006.63 1006.42 1006.67 1006.89 1007.09 1007.37 1008.01 1008.49 1008.62 1008.92 1009.46 1009.90 1010.51 1011.39 1012.23 1012.37 1012.91 1013.76 1014.48 1014.90 1015.44
1019.55 1018.95 1018.45 1018.01 1017.54 1016.95 1016.25 1015.54 1014.95 1014.36 1013.81 1013.18 1012.36 1011.48 1010.56 1009.30 1008.70 1008.35 1007.68 1006.61 1006.36 1006.05 1005.83 1006.03 1005.88 1005.78 1006.03 1006.31 1006.59 1007.08 1007.41 1007.97 1008.67 1008.96 1009.45 1010.11 1011.02 1011.61 1011.76 1012.45 1013.33 1013.90 1014.27
1019.70 1019.12 1018.62 1018.07 1017.43 1016.75 1016.02 1015.26 1014.62 1013.92 1013.40 1013.01 1012.51 1011.95 1011.20 1010.58 1009.93 1009.38 1008.26 1007.47 1006.93 1006.01 1005.57 1006.08 1005.86 1005.61 1005.49 1005.71 1005.88 1005.86 1006.51 1006.76 1007.44 1008.10 1008.34 1008.88 1009.55 1010.49 1010.99 1011.31 1011.94 1012.73 1013.23
1019.99 1019.36 1018.74 1018.02 1017.29 1016.73 1016.04 1015.21 1014.41 1013.68 1013.18 1012.72 1012.26 1011.72 1011.12 1010.82 1010.61 1010.20 1009.77 1008.86 1007.90 1006.93 1006.18 1005.29 1005.32 1004.93 1005.19 1005.29 1005.25 1005.53 1005.85 1005.90 1006.38 1006.98 1007.63 1008.18 1008.41 1009.06 1009.73 1010.05 1010.62 1011.41 1012.05
1020.52 1019.73 1019.00 1018.20 1017.45 1016.80 1015.91 1014.96 1014.08 1013.37 1012.65 1012.13 1011.86 1011.54 1011.16 1010.94 1010.84 1010.68 1010.36 1009.87 1008.61 1007.80 1007.11 1006.08 1005.17 1004.94 1004.95 1004.79 1004.70 1004.78 1005.48 1005.56 1005.75 1006.00 1006.43 1007.25 1007.91 1008.04 1008.57 1009.10 1009.51 1010.11 1010.84
1021.10 1020.19 1019.55 1018.73 1017.85 1016.99 1016.10 1015.02 1014.12 1013.18 1011.92 1011.51 1011.32 1011.03 1010.87 1010.72 1010.59 1010.38 1010.28 1010.04 1009.57 1008.44 1007.09 1006.35 1005.82 1005.09 1004.95 1004.58 1004.45 1004.38 1004.63 1005.08 1005.51 1005.88 1006.12 1006.29 1007.12 1007.42 1007.62 1008.22 1008.67 1009.13 1009.86
1021.52 1020.69 1019.92 1019.13 1018.26 1017.37 1016.51 1015.55 1014.65 1013.68 1012.36 1012.15 1011.94 1011.48 1011.31 1010.96 1010.50 1010.09 1009.61 1009.30 1008.87 1008.37 1007.21 1006.84 1006.07 1005.76 1005.64 1005.18 1004.63 1004.41 1004.25 1004.65 1005.27 1005.73 1006.23 1006.71 1007.11 1007.64 1007.54 1007.94 1008.40 1008.62 1009.04
1021.90 1021.24 1020.58 1019.82 1018.91 1017.96 1017.20 1016.32 1015.61 1014.94 1014.07 1013.55 1013.23 1012.87 1012.42 1011.77 1011.26 1010.60 1009.77 1009.01 1008.62 1007.86 1007.03 1006.41 1006.10 1005.82 1005.86 1006.27 1005.69 1004.79 1004.39 1004.82 1005.39 1005.81 1005.78 1006.24 1006.83 1007.11 1007.39 1007.35 1008.24 1008.13 1008.75
1022.07 1021.79 1021.21 1020.52 1019.71 1018.82 1018.02 1017.26 1016.53 1016.05 1015.41 1014.85 1014.54 1013.99 1013.53 1012.83 1012.10 1011.45 1010.64 1009.83 1009.08 1008.47 1007.58 1006.83 1006.45 1006.77 1007.15 1007.22 1006.59 1005.95 1005.81 1005.95 1005.92 1006.72 1006.82 1006.38 1005.99 1005.94 1007.22 1006.63 1006.80 1007.72 1008.22
1022.63 1022.22 1021.73 1021.19 1020.64 1019.88 1019.01 1018.38 1017.79 1017.28 1016.82 1016.41 1015.98 1015.18 1014.69 1013.84 1012.99 1012.40 1011.70 1010.85 1010.19 1009.34 1008.82 1008.22 1008.65 1009.03 1008.95 1009.06 1007.80 1007.97 1006.84 1007.73 1007.72 1007.84 1007.41 1007.67 1007.09 1006.66 1006.31 1006.57 1006.42 1008.82 1008.30
1023.58 1023.09 1022.73 1022.08 1021.39 1020.71 1020.09 1019.63 1019.21 1018.70 1018.16 1017.80 1017.29 1016.56 1015.65 1014.99 1014.32 1013.49 1012.77 1012.12 1011.49 1010.75 1010.45 1010.48 1010.92 1011.14 1011.16 1010.70 1009.91 1009.84 1008.38 1008.53 1009.05 1009.81 1008.67 1008.63 1008.76 1008.31 1008.36 1007.86 1007.48 1008.78 1008.60
1024.48 1024.06 1023.73 1023.16 1022.27 1021.43 1021.09 1020.79 1020.53 1020.17 1019.62 1019.03 1018.50 1017.87 1017.20 1016.37 1015.82 1015.13 1014.27 1013.77 1012.96 1012.57 1012.55 1012.45 1012.71 1012.64 1012.84 1012.29 1011.59 1011.29 1010.26 1009.42 1010.23 1011.63 1009.54 1009.67 1010.10 1010.27 1009.92 1009.46 1009.02 1008.44 1008.41
1025.24 1024.88 1024.48 1024.11 1023.24 1022.42 1021.85 1021.65 1021.62 1021.47 1021.05 1020.59 1020.07 1019.45 1018.63 1017.71 1017.01 1016.50 1015.94 1015.47 1015.01 1014.49 1014.22 1014.43 1014.60 1014.50 1014.43 1013.87 1013.11 1012.59 1011.69 1010.57 1010.69 1011.38 1011.16 1011.23 1011.30 1010.87 1010.55 1010.71 1010.33 1009.95 1009.03
1025.91 1025.70 1025.49 1025.10 1024.41 1023.44 1022.47 1022.14 1022.44 1022.41 1022.25 1021.93 1021.56 1020.93 1020.10 1019.35 1018.53 1017.91 1017.57 1017.02 1016.51 1016.31 1016.16 1016.12 1016.03 1016.13 1015.82 1015.41 1014.47 1013.47 1012.40 1012.72 1013.56 1013.66 1012.80 1012.40 1012.46 1011.82 1012.04 1011.53 1011.36 1011.04 1010.14
1026.26 1026.26 1026.15 1025.99 1025.48 1024.64 1023.64 1022.86 1022.84 1022.95 1023.01 1022.93 1022.56 1022.19 1021.54 1020.78 1020.05 1019.45 1018.84 1018.29 1017.89 1017.45 1017.10 1017.05 1017.04 1017.16 1016.95 1016.59 1015.76 1015.17 1014.51 1014.03 1013.84 1014.66 1014.56 1014.08 1013.16 1012.94 1012.64 1012.34 1011.94 1011.36 1010.70
1026.33 1026.37 1026.55 1026.35 1026.10 1025.58 1024.87 1024.10 1023.59 1023.55 1023.51 1023.63 1023.53 1022.90 1022.38 1021.88 1021.31 1020.73 1020.05 1019.71 1019.37 1019.12 1018.84 1018.55 1018.34 1018.11 1017.82 1017.14 1016.56 1015.92 1015.22 1014.64 1014.97 1015.75 1015.33 1014.73 1014.53 1013.61 1012.66 1012.86 1012.49 1012.12 1011.62
1026.35 1026.47 1026.63 1026.70 1026.56 1026.36 1025.77 1025.20 1024.88 1024.55 1024.43 1024.30 1024.17 1023.88 1023.02 1022.63 1022.28 1021.72 1021.31 1020.99 1020.59 1020.54 1020.17 1019.77 1019.31 1018.93 1018.51 1018.06 1017.29 1017.30 1017.42 1017.29 1016.98 1016.87 1017.08 1016.17 1015.72 1014.75 1013.95 1013.25 1012.70 1012.39 1011.90
Thickness
5647 5649 5652 5655 5659 5665 5668 5669 5668 5667 5667 5675 5666 5669 5677 5675 5681 5688 5687 5680 5678 5673 5678 5671 5678 5674 5666 5664 5662 5661 5658 5657 5653 5650 5646 5646 5644 5641 5638 5636 5634 5632 5631
5633 5634 5637 5641 5645 5649 5652 5658 5657 5657 5657 5668 5669 5663 5664 5660 5667 5655 5658 5676 5674 5667 5665 5665 5672 5672 5666 5662 5660 5657 5659 5655 5652 5649 5645 5644 5643 5640 5638 5635 5633 5630 5628
5616 5616 5618 5622 5626 5633 5637 5642 5642 5646 5647 5654 5658 5658 5652 5662 5654 5659 5672 5670 5655 5643 5649 5653 5663 5667 5663 5660 5659 5656 5654 5656 5651 5648 5643 5642 5641 5640 5637 5634 5631 5629 5627
5600 5600 5600 5603 5607 5612 5618 5622 5625 5627 5633 5641 5641 5641 5647 5649 5647 5648 5662 5664 5662 5650 5626 5642 5655 5661 5661 5657 5656 5655 5653 5652 5653 5648 5643 5640 5640 5639 5637 5633 5630 5627 5625
5584 5583 5584 5585 5587 5593 5599 5604 5609 5610 5615 5623 5632 5630 5633 5639 5643 5646 5651 5659 5657 5663 5642 5656 5656 5662 5658 5655 5655 5653 5653 5649 5650 5651 5645 5639 5638 5636 5636 5634 5630 5626 5624
5563 5564 5567 5568 5570 5574 5581 5586 5592 5597 5600 5605 5612 5619 5624 5630 5633 5634 5638 5651 5661 5660 5658 5660 5657 5659 5657 5653 5655 5653 5652 5648 5648 5648 5649 5642 5638 5635 5633 5633 5631 5627 5624
5538 5539 5542 5545 5547 5552 5559 5566 5572 5579 5587 5590 5595 5605 5611 5620 5625 5630 5635 5642 5654 5662 5663 5660 5659 5653 5650 5651 5652 5654 5653 5650 5647 5646 5647 5646 5640 5636 5633 5631 5630 5628 5625
5509 5509 5510 5515 5521 5526 5530 5538 5547 5559 5569 5574 5579 5583 5594 5607 5620 5625 5630 5636 5645 5651 5654 5655 5651 5651 5650 5652 5650 5654 5652 5651 5648 5646 5644 5643 5643 5638 5633 5630 5628 5627 5625
5478 5478 5480 5483 5489 5495 5504 5511 5519 5528 5540 5556 5562 5564 5576 5586 5598 5614 5625 5630 5636 5640 5646 5650 5651 5649 5653 5653 5649 5650 5654 5652 5651 5648 5644 5639 5641 5639 5635 5630 5628 5626 5624
5451 5452 5456 5459 5464 5469 5476 5485 5494 5503 5511 5526 5536 5550 5558 5564 5568 5582 5607 5616 5622 5630 5637 5645 5647 5648 5649 5652 5649 5649 5650 5653 5650 5649 5647 5642 5638 5639 5638 5633 5628 5627 5624
5432 5434 5436 5439 5443 5448 5456 5463 5471 5479 5488 5499 5512 5521 5530 5546 5554 5558 5573 5597 5606 5620 5629 5634 5641 5645 5646 5648 5649 5649 5651 5649 5645 5645 5645 5643 5638 5637 5638 5635 5630 5627 5627
5417 5419 5421 5425 5430 5436 5443 5450 5457 5467 5475 5482 5491 5499 5508 5516 5524 5534 5553 5573 5584 5603 5616 5620 5615 5630 5639 5640 5642 5646 5649 5649 5646 5641 5643 5643 5640 5635 5636 5635 5633 5628 5627
5404 5407 5410 5415 5420 5424 5430 5438 5446 5455 5462 5470 5478 5487 5495 5499 5506 5514 5522 5537 5557 5575 5592 5609 5611 5623 5629 5631 5636 5638 5639 5646 5646 5640 5638 5638 5639 5637 5635 5637 5634 5630 5629
5392 5395 5399 5404 5409 5413 5419 5427 5436 5443 5452 5460 5466 5473 5481 5486 5491 5497 5505 5513 5532 5549 5563 5584 5600 5609 5616 5622 5628 5634 5628 5635 5638 5638 5637 5632 5631 5634 5633 5633 5634 5632 5629
5380 5385 5388 5393 5397 5401 5406 5415 5424 5433 5445 5452 5458 5465 5470 5475 5481 5488 5492 5500 5510 5528 5548 5563 5575 5591 5600 5609 5617 5624 5624 5624 5625 5627 5628 5628 5624 5624 5627 5625 5627 5628 5625
5372 5376 5380 5384 5389 5394 5398 5405 5412 5420 5431 5433 5439 5448 5454 5462 5470 5479 5487 5495 5505 5516 5533 5545 5559 5570 5577 5590 5600 5608 5615 5615 5614 5614 5613 5613 5612 5611 5614 5613 5614 5618 5619
5366 5369 5373 5377 5381 5386 5389 5395 5400 5405 5411 5414 5419 5425 5433 5445 5453 5463 5475 5486 5496 5509 5527 5538 5544 5551 5558 5566 5581 5594 5599 5599 5598 5599 5603 5602 5602 5603 5603 5605 5603 5608 5607
5363 5364 5367 5370 5374 5379 5382 5386 5391 5393 5397 5402 5404 5411 5418 5429 5438 5447 5458 5468 5481 5491 5510 5525 5530 5530 5532 5544 5557 5560 5566 5574 5579 5579 5581 5589 5597 5598 5589 5598 5602 5597 5598
5360 5360 5362 5364 5366 5370 5375 5378 5381 5384 5387 5389 5392 5400 5405 5415 5425 5433 5441 5452 5462 5478 5487 5500 5500 5497 5507 5514 5532 5536 5547 5545 5551 5555 5563 5565 5575 5582 5584 5583 5591 5575 5584
5357 5357 5357 5359 5362 5365 5368 5369 5370 5373 5376 5379 5382 5388 5397 5405 5412 5420 5428 5436 5444 5455 5463 5468 5467 5470 5476 5489 5500 5502 5521 5525 5526 5524 5535 5541 5543 5551 5555 5562 5569 5562 5568
5358 5357 5355 5356 5359 5363 5363 5362 5362 5363 5366 5370 5374 5379 5384 5393 5399 5406 5414 5420 5429 5434 5437 5441 5443 5449 5453 5464 5475 5479 5494 5509 5503 5494 5514 5517 5519 5520 5525 5533 5542 5552 5556
5356 5356 5355 5355 5358 5361 5361 5360 5356 5356 5358 5360 5363 5367 5374 5381 5388 5393 5399 5403 5408 5413 5417 5419 5420 5427 5432 5442 5452 5462 5472 5483 5493 5485 5490 5493 5493 5500 5507 5508 5514 5520 5533
5354 5352 5350 5351 5353 5357 5360 5360 5355 5353 5353 5354 5355 5358 5364 5369 5376 5381 5386 5390 5392 5394 5397 5400 5403 5405 5412 5420 5433 5444 5454 5451 5448 5452 5458 5462 5469 5475 5478 5484 5487 5493 5504
5352 5349 5347 5346 5347 5350 5354 5357 5354 5352 5351 5350 5352 5353 5356 5361 5366 5369 5375 5379 5382 5385 5387 5389 5390 5391 5394 5401 5411 5418 5424 5429 5432 5427 5428 5434 5445 5451 5454 5460 5467 5475 5484
5350 5347 5344 5343 5343 5345 5347 5350 5352 5351 5350 5348 5347 5351 5352 5354 5359 5363 5367 5369 5372 5373 5374 5375 5376 5378 5381 5388 5395 5401 5407 5412 5413 5404 5408 5415 5419 5427 5438 5439 5445 5451 5458
5347 5345 5342 5339 5339 5338 5341 5343 5344 5344 5343 5343 5343 5344 5348 5350 5352 5355 5357 5359 5361 5361 5364 5367 5370 5372 5374 5377 5382 5382 5379 5379 5382 5383 5380 5388 5392 5400 5408 5419 5425 5429 5435